Project,Study,Ord_Occ,Event_Num,Cast_ID,Date_Time_UTC,Date_Time_PST,Lat_Dec,Lon_Dec,Sta_ID,Line,Sta,Depth,Pressure,PrQ,Temp1,Temp1Q,Temp2,Temp2Q,TempAve,Salt1,Salt1Q,Salt1_Corr,Salt2,Salt2Q,Salt2_Corr,SaltAve_Corr,Ox1,Ox1Q,Ox1_CruiseCorr,Ox1_StaCorr,Ox2,Ox2Q,Ox2_CruiseCorr,Ox2_StaCorr,OxAve_StaCorr,Ox1uM,Ox1uM_CruiseCorr,Ox1uM_StaCorr,Ox2uM,Ox2uM_CruiseCorr,Ox2uM_StaCorr,OxAveuM_StaCorr,FluorV,FluorQ,EstChl_CruiseCorr,EstChl_StaCorr,ISUSV,ISUSQ,EstNO3_CruiseCorr,EstNO3_StaCorr,SigThetaTS1,SigThetaTS1Q,SigThetaTS2,SigThetaTS2Q,BAT,XMiss,TransQ,pH,pHQ,SPAR,SPARQ,PAR,PARQ,PoT1,PoT2,DynHt,SVA,OxSat1,OxSat2,BTL_Depth,BTL_Temp,SaltB,OxB,OxBuM,Chl-a,Phaeo,NO3,NO2,NH4,PO4,SIL
CalCOFI,2007SR,003,4,2007_003d,13-Jul-2020 23:42:21,13-Jul-2020 15:42:21,32.95667,-117.30422,093.3 026.7,093.3,026.7,2.000,2.014,,22.6567,,22.6408,,22.6488,33.6663,,33.6665,33.6678,,33.6694,33.6680,6.3462,,6.6134,6.5937,3.9462,,5.4796,5.3331,5.9634,277.044,288.7181,292.8253,172.269,512.0653,172.9077,232.8665,0.1405,,1.2289,0.0000,0.1287,,0.0000,2.033,23.0204,,23.0260,,1.2285,73.5553,,8.266,,7.6336E+02,,3.4417E+01,,22.6563,22.6404,0.0053,,127.632,79.342,2,22.699,33.6579,6.62,288.89,2.880,203.589,0.25,0.00,0.76,0.09,0.87
CalCOFI,2007SR,003,4,2007_003d,13-Jul-2020 23:42:29,13-Jul-2020 15:42:29,32.95667,-117.30422,093.3 026.7,093.3,026.7,3.000,3.021,,22.6689,,22.6654,,22.6672,33.6665,,33.6667,33.6678,,33.6694,33.6681,6.3498,,6.6172,6.5976,3.9583,,5.5084,5.3118,5.9547,277.202,288.8831,293.0420,172.802,512.4517,173.0724,233.0572,0.1400,,1.2230,0.0000,0.1295,,0.0000,2.053,23.0172,,23.0191,,1.2288,73.5513,,8.266,,7.5609E+02,,2.4279E+01,,22.6683,22.6648,0.0128,,127.732,79.621,,,,,,,,,,,,
CalCOFI,2007SR,003,4,2007_003d,13-Jul-2020 23:42:32,13-Jul-2020 15:42:32,32.95667,-117.30422,093.3 026.7,093.3,026.7,4.000,4.028,,22.6629,,22.6615,,22.6622,33.6662,,33.6664,33.6675,,33.6691,33.6678,6.3529,,6.6204,6.6010,3.9659,,5.5266,5.2985,5.9498,277.335,289.0219,293.2243,173.130,512.7770,173.1738,233.1991,0.1472,,1.3079,0.0000,0.1293,,0.0000,2.048,23.0187,,23.0201,,1.2277,73.5703,,8.266,,9.3519E+02,,1.9105E+01,,22.6621,22.6607,0.0179,,127.780,79.767,,,,,,,,,,,,
CalCOFI,2007SR,003,4,2007_003d,13-Jul-2020 23:42:36,13-Jul-2020 15:42:36,32.95666,-117.30422,093.3 026.7,093.3,026.7,5.000,5.036,,22.6570,,22.6587,,22.6579,33.6666,,33.6668,33.6676,,33.6692,33.6680,6.3492,,6.6166,6.5969,3.9724,,5.5421,5.2870,5.9420,277.175,288.8549,293.0049,173.416,512.3857,173.2622,233.1336,0.1538,,1.3859,0.0000,0.1292,,0.0000,2.045,23.0207,,23.0210,,1.2289,73.5475,,8.266,,5.8158E+02,,1.5141E+01,,22.6560,22.6577,0.0228,,127.693,79.894,,,,,,,,,,,,
CalCOFI,2007SR,003,4,2007_003d,13-Jul-2020 23:42:37,13-Jul-2020 15:42:37,32.95666,-117.30422,093.3 026.7,093.3,026.7,6.000,6.043,,22.6486,,22.6499,,22.6493,33.6642,,33.6644,33.6662,,33.6678,33.6661,6.3547,,6.6223,6.6029,3.9752,,5.5488,5.2821,5.9425,277.415,289.1054,293.3340,173.538,512.9727,173.2999,233.3170,0.1560,,1.4119,0.0000,0.1303,,0.0000,2.072,23.0213,,23.0224,,1.2306,73.5165,,8.266,,1.1556E+03,,1.2366E+01,,22.6473,22.6487,0.0276,,127.783,79.938,6,22.635,33.6562,6.603,288.18,3.101,203.589,0.0,0.025,0.26,0.05,0.8
CalCOFI,2007SR,003,4,2007_003d,13-Jul-2020 23:42:39,13-Jul-2020 15:42:39,32.95668,-117.30422,093.3 026.7,093.3,026.7,7.000,7.050,,22.6173,,22.6182,,22.6178,33.6655,,33.6657,33.6674,,33.6690,33.6674,6.3522,,6.6197,6.6002,3.9810,,5.5626,5.2719,5.9361,277.301,288.9864,293.1777,173.788,512.6939,173.3772,233.2775,0.1541,,1.3894,0.0000,0.1316,,0.0000,2.104,23.0313,,23.0324,,1.2333,73.4667,,8.266,,5.0412E+02,,9.8699E+00,,22.6159,22.6168,0.0325,,127.662,80.009,,,,,,,,,,,,
CalCOFI,2007SR,003,4,2007_003d,13-Jul-2020 23:42:41,13-Jul-2020 15:42:41,32.95667,-117.30422,093.3 026.7,093.3,026.7,8.000,8.057,,22.5960,,22.5981,,22.5971,33.6659,,33.6661,33.6680,,33.6696,33.6679,6.3341,,6.6008,6.5805,3.9871,,5.5772,5.2612,5.9209,276.511,288.1617,292.0945,174.055,510.7616,173.4597,232.7771,0.1666,,1.5371,0.0000,0.1347,,0.0000,2.181,23.0376,,23.0386,,1.2290,73.5473,,8.266,,7.9540E+02,,7.6851E+00,,22.5944,22.5965,0.0374,,127.251,80.105,,,,,,,,,,,,
CalCOFI,2007SR,003,4,2007_003d,13-Jul-2020 23:42:45,13-Jul-2020 15:42:45,32.95666,-117.30422,093.3 026.7,093.3,026.7,9.000,9.064,,22.5269,,22.5572,,22.5421,33.6577,,33.6579,33.6623,,33.6639,33.6609,6.3272,,6.5936,6.5730,4.0030,,5.6152,5.2333,5.9032,276.204,287.8413,291.6735,174.746,510.0108,173.6733,232.6734,0.1919,,1.8363,0.0000,0.1384,,0.0000,2.271,23.0510,,23.0459,,1.2451,73.2516,,8.266,,4.4607E+02,,6.2336E+00,,22.5250,22.5554,0.0422,,126.950,80.362,,,,,,,,,,,,
CalCOFI,2007SR,003,4,2007_003d,13-Jul-2020 23:42:46,13-Jul-2020 15:42:46,32.95666,-117.30422,093.3 026.7,093.3,026.7,10.000,10.071,,22.3252,,22.3205,,22.3229,33.6558,,33.6560,33.6557,,33.6573,33.6567,6.3747,,6.6432,6.6247,4.0220,,5.6605,5.1999,5.9123,278.266,289.9938,294.5009,175.566,515.0541,173.9268,234.2139,0.2078,,2.0245,0.0000,0.1404,,0.0000,2.321,23.1064,,23.1076,,1.2549,73.0712,,8.267,,1.2317E+03,,4.9197E+00,,22.3232,22.3185,0.0470,,127.448,80.404,,,,,,,,,,,,
CalCOFI,2007SR,003,4,2007_003d,13-Jul-2020 23:42:47,13-Jul-2020 15:42:47,32.95667,-117.30422,093.3 026.7,093.3,026.7,11.000,11.078,,22.0964,,22.0958,,22.0961,33.6550,,33.6552,33.6584,,33.6600,33.6576,5.8977,,6.1448,6.1061,4.0811,,5.8016,5.0961,5.6011,257.428,268.2410,265.9286,178.135,464.0873,174.7208,220.3247,0.2225,,2.1987,0.0000,0.1417,,0.0000,2.353,23.1699,,23.1726,,1.2720,72.7616,,8.268,,5.3237E+02,,3.9338E+00,,22.0942,22.0936,0.0518,,117.443,81.261,,,,,,,,,,,,
CalCOFI,2007SR,003,4,2007_003d,13-Jul-2020 23:42:50,13-Jul-2020 15:42:50,32.95667,-117.30422,093.3 026.7,093.3,026.7,12.000,12.086,,21.6670,,21.8256,,21.7463,33.5760,,33.5762,33.6240,,33.6256,33.6009,5.2676,,5.4864,5.4212,4.2748,,6.2640,4.7557,5.0885,229.913,239.5181,228.2011,186.582,396.7896,177.3316,202.7664,0.3038,,3.1643,16.2258,0.1422,,0.0000,2.365,23.2265,,23.2197,,1.3210,71.8782,,8.265,,6.3599E+02,,3.4249E+00,,21.6646,21.8233,0.0565,,104.044,84.678,12,14.603,,,231.31,3.484,206.724,,,,,
CalCOFI,2007SR,003,4,2007_003d,13-Jul-2020 23:42:52,13-Jul-2020 15:42:52,32.95666,-117.30422,093.3 026.7,093.3,026.7,13.000,13.093,,17.3093,,17.1022,,17.2058,33.5500,,33.5502,33.5338,,33.5354,33.5428,5.0235,,5.2314,5.1559,4.8041,,7.5276,3.8257,4.4908,219.024,228.1511,213.2706,209.445,370.1566,184.3982,198.8344,0.4031,,4.3491,39.6817,0.1416,,0.0000,2.350,24.3263,,24.3617,,1.3701,70.9991,,8.250,,1.4513E+03,,2.6608E+00,,17.3072,17.1001,0.0606,,91.543,87.108,,,,,,,,,,,,
CalCOFI,2007SR,003,4,2007_003d,13-Jul-2020 23:42:54,13-Jul-2020 15:42:54,32.95666,-117.30422,093.3 026.7,093.3,026.7,14.000,14.100,,15.3294,,15.1471,,15.2383,33.5273,,33.5275,33.5450,,33.5466,33.5371,4.3214,,4.4977,4.3926,5.1169,,8.2744,3.2762,3.8344,188.330,196.1096,171.1841,222.986,295.0835,188.5835,179.8838,0.3825,,4.1029,34.8157,0.1399,,0.0000,2.308,24.7631,,24.8169,,1.3355,71.6178,,8.201,,1.5207E+03,,2.1130E+00,,15.3272,15.1450,0.0641,,75.739,89.337,,,,,,,,,,,,
CalCOFI,2007SR,003,4,2007_003d,13-Jul-2020 23:42:56,13-Jul-2020 15:42:56,32.95666,-117.30422,093.3 026.7,093.3,026.7,15.000,15.107,,13.4551,,13.1659,,13.3105,33.5257,,33.5259,33.5408,,33.5424,33.5342,4.3163,,4.4924,4.3871,5.3077,,8.7299,2.9409,3.6640,188.033,195.7995,170.7769,231.209,294.3570,191.1251,180.9510,0.4032,,4.3503,39.7053,0.1383,,0.0000,2.269,25.1602,,25.2304,,1.1416,75.1689,,8.143,,7.9820E+02,,1.6798E+00,,13.4530,13.1639,0.0670,,72.824,89.041,,,,,,,,,,,,
CalCOFI,2007SR,003,4,2007_003d,13-Jul-2020 23:42:58,13-Jul-2020 15:42:58,32.95666,-117.30422,093.3 026.7,093.3,026.7,16.000,16.114,,13.0460,,13.0052,,13.0256,33.5701,,33.5703,33.5789,,33.5805,33.5754,4.3710,,4.5496,4.4466,5.3067,,8.7275,2.9427,3.6947,190.395,198.2652,174.0156,231.149,300.1342,191.1065,182.5611,0.4469,,4.8737,50.0278,0.1391,,0.0000,2.289,25.2765,,25.2914,,1.1586,74.8519,,8.104,,4.8181E+02,,1.3044E+00,,13.0438,13.0030,0.0698,,73.156,88.747,,,,,,,,,,,,
CalCOFI,2007SR,003,4,2007_003d,13-Jul-2020 23:43:00,13-Jul-2020 15:43:00,32.95667,-117.30422,093.3 026.7,093.3,026.7,17.000,17.121,,13.0070,,13.2374,,13.1222,33.5941,,33.5943,33.5894,,33.5910,33.5927,4.2158,,4.3874,4.2779,5.3573,,8.8483,2.8538,3.5659,183.631,191.2043,164.7411,233.363,283.5904,191.7908,178.2660,0.5913,,6.6112,84.1368,0.1436,,0.0000,2.399,25.3029,,25.2530,,1.1403,75.1967,,8.069,,6.6031E+02,,1.1813E+00,,13.0047,13.2351,0.0725,,70.512,90.027,,,,,,,,,,,,
CalCOFI,2007SR,003,4,2007_003d,13-Jul-2020 23:43:03,13-Jul-2020 15:43:03,32.95666,-117.30422,093.3 026.7,093.3,026.7,18.000,18.129,,12.6592,,12.5937,,12.6265,33.5601,,33.5603,33.5634,,33.5650,33.5627,3.9947,,4.1564,4.0375,5.4377,,9.0402,2.7125,3.3750,173.994,181.1442,151.5272,236.841,260.0196,192.8658,172.1965,0.6676,,7.5344,102.1598,0.1495,,0.0000,2.544,25.3448,,25.3601,,1.1355,75.2862,,8.048,,1.0988E+03,,1.0237E+00,,12.6568,12.5913,0.0751,,66.324,90.157,,,,,,,,,,,,
CalCOFI,2007SR,003,4,2007_003d,13-Jul-2020 23:43:05,13-Jul-2020 15:43:05,32.95666,-117.30422,093.3 026.7,093.3,026.7,19.000,19.136,,12.3643,,12.3354,,12.3499,33.5739,,33.5741,33.5837,,33.5853,33.5797,3.8805,,4.0370,3.9134,5.4453,,9.0584,2.6992,3.3063,169.007,175.9383,144.6892,237.156,247.8222,192.9632,168.8262,0.5026,,5.5424,63.1848,0.1537,,0.0000,2.648,25.4127,,25.4259,,1.0645,76.6351,,8.025,,9.4901E+02,,7.0956E-01,,12.3618,12.3329,0.0778,,64.037,89.811,,,,,,,,,,,,
CalCOFI,2007SR,003,4,2007_003d,13-Jul-2020 23:43:07,13-Jul-2020 15:43:07,32.95666,-117.30422,093.3 026.7,093.3,026.7,20.000,20.143,,12.3052,,12.2905,,12.2979,33.5999,,33.6001,33.6076,,33.6092,33.6047,3.7262,,3.8758,3.7456,5.3954,,8.9392,2.7868,3.2662,162.284,168.9202,135.4709,234.976,231.3787,192.2894,163.8802,0.3840,,4.1208,35.1700,0.1600,,0.0000,2.802,25.4443,,25.4530,,0.9759,78.3519,,8.000,,7.3796E+02,,3.4371E-01,,12.3026,12.2879,0.0803,,61.426,88.918,,,,,,,,,,,,
CalCOFI,2007SR,003,4,2007_003d,13-Jul-2020 23:43:08,13-Jul-2020 15:43:08,32.95666,-117.30422,093.3 026.7,093.3,026.7,21.000,21.150,,12.2898,,12.2684,,12.2791,33.6145,,33.6147,33.6235,,33.6251,33.6199,3.6201,,3.7649,3.6303,5.3461,,8.8215,2.8735,3.2519,157.660,164.0932,129.1306,232.827,220.0690,191.6252,160.3779,0.3332,,3.5145,23.1704,0.1710,,0.0000,3.073,25.4586,,25.4696,,0.9290,79.2746,,7.981,,4.9483E+02,,4.8962E-02,,12.2871,12.2657,0.0829,,59.663,88.074,,,,,,,,,,,,
CalCOFI,2007SR,003,4,2007_003d,13-Jul-2020 23:43:11,13-Jul-2020 15:43:11,32.95666,-117.30422,093.3 026.7,093.3,026.7,22.000,22.157,,12.2159,,12.2221,,12.2190,33.6346,,33.6348,33.6389,,33.6405,33.6377,3.6203,,3.7652,3.6305,5.3066,,8.7272,2.9429,3.2867,157.663,164.0963,129.1348,231.102,220.0763,191.0920,160.1134,0.2785,,2.8634,10.2496,0.1955,,0.0000,3.675,25.4883,,25.4905,,0.9157,79.5398,,7.958,,7.8544E+02,,1.3736E-03,,12.2130,12.2192,0.0854,,59.581,87.347,22,11.807,33.6569,3.464,151.19,0.709,206.721,7.88,0.028,0.24,1.01,11.61
CalCOFI,2007SR,003,4,2007_003d,13-Jul-2020 23:43:13,13-Jul-2020 15:43:13,32.95666,-117.30422,093.3 026.7,093.3,026.7,23.000,23.165,,12.1259,,12.1029,,12.1144,33.6360,,33.6362,33.6402,,33.6418,33.6390,3.6160,,3.7607,3.6259,5.2312,,8.5472,3.0753,3.3506,157.472,163.8969,128.8729,227.812,219.6092,190.0751,159.4740,0.2614,,2.6602,6.2104,0.2323,,0.0000,4.580,25.5065,,25.5142,,0.8662,80.5295,,7.944,,7.3965E+02,,1.0000E-12,,12.1229,12.0999,0.0879,,59.398,85.892,,,,,,,,,,,,
CalCOFI,2007SR,003,4,2007_003d,13-Jul-2020 23:43:15,13-Jul-2020 15:43:15,32.95666,-117.30422,093.3 026.7,093.3,026.7,24.000,24.172,,12.0091,,11.9676,,11.9884,33.6328,,33.6330,33.6394,,33.6410,33.6370,3.5566,,3.6986,3.5613,5.1887,,8.4458,3.1500,3.3557,154.886,161.1974,125.3270,225.956,213.2842,189.5015,157.4143,0.1482,,1.3197,0.0000,0.2583,,0.0000,5.219,25.5261,,25.5391,,0.8038,81.7963,,7.937,,7.3512E+02,,1.0000E-12,,12.0060,11.9645,0.0904,,58.280,84.952,,,,,,,,,,,,
CalCOFI,2007SR,003,4,2007_003d,13-Jul-2020 23:43:17,13-Jul-2020 15:43:17,32.95666,-117.30422,093.3 026.7,093.3,026.7,25.000,25.179,,11.9116,,11.8961,,11.9039,33.6466,,33.6468,33.6537,,33.6553,33.6511,3.5189,,3.6592,3.5203,5.1199,,8.2815,3.2709,3.3956,153.239,159.4781,123.0687,222.957,209.2559,188.5745,155.8216,0.1326,,1.1356,0.0000,0.2901,,0.0000,6.000,25.5553,,25.5637,,0.7683,82.5237,,7.925,,5.7219E+02,,1.0000E-12,,11.9084,11.8929,0.0928,,57.549,83.709,,,,,,,,,,,,
CalCOFI,2007SR,003,4,2007_003d,13-Jul-2020 23:43:19,13-Jul-2020 15:43:19,32.95666,-117.30422,093.3 026.7,093.3,026.7,26.000,26.186,,11.8971,,11.8817,,11.8894,33.6517,,33.6519,33.6584,,33.6600,33.6560,3.4904,,3.6294,3.4893,5.0396,,8.0898,3.4120,3.4507,151.997,158.1816,121.3658,219.459,206.2181,187.4933,154.4296,0.1281,,1.0825,0.0000,0.3284,,0.0000,6.942,25.5620,,25.5701,,0.7568,82.7626,,7.914,,5.2994E+02,,1.0000E-12,,11.8938,11.8784,0.0953,,57.067,82.373,,,,,,,,,,,,
CalCOFI,2007SR,003,4,2007_003d,13-Jul-2020 23:43:21,13-Jul-2020 15:43:21,32.95666,-117.30422,093.3 026.7,093.3,026.7,27.000,27.193,,11.8741,,11.8605,,11.8673,33.6555,,33.6557,33.6614,,33.6630,33.6594,3.4254,,3.5615,3.4187,4.9627,,7.9063,3.5471,3.4829,149.164,155.2242,117.4813,216.105,199.2890,186.4567,151.9690,0.1315,,1.1227,0.0000,0.3689,,0.1191,7.937,25.5692,,25.5763,,0.7488,82.9268,,7.904,,8.7430E+02,,1.0000E-12,,11.8706,11.8571,0.0977,,55.978,81.080,,,,,,,,,,,,
CalCOFI,2007SR,003,4,2007_003d,13-Jul-2020 23:43:23,13-Jul-2020 15:43:23,32.95666,-117.30422,093.3 026.7,093.3,026.7,28.000,28.201,,11.8285,,11.7940,,11.8113,33.6592,,33.6594,33.6675,,33.6691,33.6643,3.3511,,3.4839,3.3379,4.8755,,7.6981,3.7003,3.5191,145.927,151.8451,113.0428,212.306,191.3718,185.2825,149.1627,0.1142,,0.9187,0.0000,0.4048,,1.1272,8.820,25.5806,,25.5935,,0.7450,83.0069,,7.893,,1.0005E+03,,1.0000E-12,,11.8249,11.7905,0.1001,,54.713,79.548,,,,,,,,,,,,
CalCOFI,2007SR,003,4,2007_003d,13-Jul-2020 23:43:25,13-Jul-2020 15:43:25,32.95666,-117.30422,093.3 026.7,093.3,026.7,29.000,29.208,,11.7563,,11.7302,,11.7433,33.6671,,33.6673,33.6745,,33.6761,33.6717,3.3026,,3.4332,3.2852,4.7963,,7.5090,3.8395,3.5624,143.814,149.6393,110.1456,208.852,186.2037,184.2149,147.1803,0.1081,,0.8468,0.0000,0.4267,,1.7422,9.358,25.6003,,25.6109,,0.7394,83.1228,,7.884,,8.9068E+02,,1.0000E-12,,11.7526,11.7265,0.1025,,53.842,78.153,,,,,,,,,,,,
CalCOFI,2007SR,003,4,2007_003d,13-Jul-2020 23:43:27,13-Jul-2020 15:43:27,32.95666,-117.30422,093.3 026.7,093.3,026.7,30.000,30.215,,11.7332,,11.7140,,11.7236,33.6682,,33.6684,33.6738,,33.6754,33.6719,3.2717,,3.4009,3.2516,4.7307,,7.3524,3.9547,3.6032,142.467,148.2332,108.2986,205.998,182.9091,183.3328,145.8157,0.1015,,0.7690,0.0000,0.4394,,2.0988,9.670,25.6055,,25.6134,,0.7407,83.0966,,7.876,,7.4315E+02,,1.0000E-12,,11.7294,11.7102,0.1049,,53.313,77.059,,,,,,,,,,,,
CalCOFI,2007SR,003,4,2007_003d,13-Jul-2020 23:43:29,13-Jul-2020 15:43:29,32.95666,-117.30422,093.3 026.7,093.3,026.7,31.000,31.222,,11.6696,,11.6719,,11.6708,33.6747,,33.6749,33.6787,,33.6803,33.6776,3.2682,,3.3972,3.2478,4.6554,,7.1726,4.0870,3.6674,142.313,148.0724,108.0874,202.714,182.5324,182.3177,145.2026,0.0981,,0.7290,0.0000,0.4559,,2.5621,10.076,25.6224,,25.6251,,0.7369,83.1753,,7.867,,5.6728E+02,,1.0000E-12,,11.6657,11.6680,0.1073,,53.187,75.766,,,,,,,,,,,,
CalCOFI,2007SR,003,4,2007_003d,13-Jul-2020 23:43:32,13-Jul-2020 15:43:32,32.95666,-117.30422,093.3 026.7,093.3,026.7,32.000,32.230,,11.6746,,11.6579,,11.6663,33.6752,,33.6754,33.6803,,33.6819,33.6787,3.2286,,3.3559,3.2047,4.5527,,6.9275,4.2675,3.7361,140.585,146.2686,105.7181,198.245,178.3060,180.9365,143.3273,0.0955,,0.6984,0.0000,0.4820,,3.2950,10.718,25.6219,,25.6289,,0.7341,83.2329,,7.860,,6.8547E+02,,1.0000E-12,,11.6706,11.6539,0.1097,,52.547,74.075,32,11.555,33.676,3.244,141.59,0.400,206.648,11.06,0.00,0.19,1.15,12.95
CalCOFI,2007SR,003,4,2007_003d,13-Jul-2020 23:43:34,13-Jul-2020 15:43:34,32.95666,-117.30422,093.3 026.7,093.3,026.7,33.000,33.237,,11.6525,,11.6281,,11.6403,33.6755,,33.6757,33.6812,,33.6828,33.6793,3.1723,,3.2970,3.1435,4.5099,,6.8253,4.3427,3.7431,138.136,143.7121,102.3601,196.376,172.3161,180.3588,141.3595,0.0914,,0.6501,0.0000,0.5001,,3.8032,11.163,25.6262,,25.6351,,0.7323,83.2708,,7.852,,6.6630E+02,,1.0000E-12,,11.6483,11.6240,0.1121,,51.607,73.331,,,,,,,,,,,,
CalCOFI,2007SR,003,4,2007_003d,13-Jul-2020 23:43:35,13-Jul-2020 15:43:35,32.95666,-117.30421,093.3 026.7,093.3,026.7,34.000,34.244,,11.5997,,11.5809,,11.5903,33.6778,,33.6780,33.6831,,33.6847,33.6814,3.1060,,3.2278,3.0715,4.4606,,6.7076,4.4293,3.7504,135.246,140.6952,98.3975,194.228,165.2476,179.6949,139.0462,0.0807,,0.5241,0.0000,0.5230,,4.4462,11.725,25.6378,,25.6453,,0.7250,83.4219,,7.846,,6.2252E+02,,1.0000E-12,,11.5955,11.5767,0.1144,,50.473,72.459,,,,,,,,,,,,
CalCOFI,2007SR,003,4,2007_003d,13-Jul-2020 23:43:38,13-Jul-2020 15:43:38,32.95666,-117.30422,093.3 026.7,093.3,026.7,35.000,35.251,,11.4251,,11.3913,,11.4082,33.6872,,33.6874,33.6928,,33.6944,33.6909,3.0847,,3.2055,3.0483,4.4096,,6.5858,4.5189,3.7836,134.313,139.7212,97.1182,192.001,162.9656,179.0065,138.0624,0.0634,,0.3207,0.0000,0.5535,,5.3027,12.475,25.6772,,25.6877,,0.7196,83.5356,,7.838,,5.9779E+02,,1.0000E-12,,11.4207,11.3870,0.1168,,49.944,71.348,,,,,,,,,,,,
CalCOFI,2007SR,003,4,2007_003d,13-Jul-2020 23:43:40,13-Jul-2020 15:43:40,32.95666,-117.30422,093.3 026.7,093.3,026.7,36.000,36.259,,11.3602,,11.3424,,11.3513,33.6931,,33.6933,33.6986,,33.7002,33.6968,3.0538,,3.1732,3.0147,4.3462,,6.4345,4.6303,3.8225,132.967,138.3162,95.2726,189.237,159.6734,178.1522,136.7124,0.0647,,0.3360,0.0000,0.5893,,6.3079,13.355,25.6937,,25.7012,,0.7176,83.5774,,7.830,,5.6833E+02,,1.0000E-12,,11.3557,11.3379,0.1191,,49.379,70.251,,,,,,,,,,,,
CalCOFI,2007SR,003,4,2007_003d,13-Jul-2020 23:43:42,13-Jul-2020 15:43:42,32.95666,-117.30421,093.3 026.7,093.3,026.7,37.000,37.266,,11.2960,,11.2688,,11.2824,33.6970,,33.6972,33.7025,,33.7041,33.7007,3.0721,,3.1923,3.0346,4.2876,,6.2946,4.7332,3.8839,133.759,139.1429,96.3585,186.683,161.6106,177.3628,136.8607,0.0615,,0.2984,0.0000,0.6233,,7.2626,14.191,25.7083,,25.7176,,0.7186,83.5569,,7.824,,5.8086E+02,,1.0000E-12,,11.2915,11.2642,0.1214,,49.607,69.198,,,,,,,,,,,,
CalCOFI,2007SR,003,4,2007_003d,13-Jul-2020 23:43:44,13-Jul-2020 15:43:44,32.95666,-117.30420,093.3 026.7,093.3,026.7,38.000,38.273,,11.1896,,11.1633,,11.1765,33.7004,,33.7006,33.7071,,33.7087,33.7047,3.0865,,3.2074,3.0503,4.2445,,6.1917,4.8090,3.9297,134.384,139.7954,97.2155,184.802,163.1392,176.7814,136.9985,0.0616,,0.2995,0.0000,0.6475,,7.9422,14.786,25.7303,,25.7402,,0.7133,83.6671,,7.821,,5.4944E+02,,1.0000E-12,,11.1849,11.1586,0.1237,,49.728,68.350,,,,,,,,,,,,
CalCOFI,2007SR,003,4,2007_003d,13-Jul-2020 23:43:46,13-Jul-2020 15:43:46,32.95666,-117.30420,093.3 026.7,093.3,026.7,39.000,39.280,,11.1260,,11.1166,,11.1213,33.7077,,33.7079,33.7125,,33.7141,33.7110,3.0865,,3.2074,3.0503,4.1913,,6.0647,4.9024,3.9764,134.383,139.7943,97.2141,182.486,163.1368,176.0656,136.6399,0.0634,,0.3207,0.0000,0.6693,,8.5543,15.322,25.7474,,25.7529,,0.7137,83.6590,,7.818,,5.3737E+02,,1.0000E-12,,11.1212,11.1119,0.1260,,49.664,67.430,,,,,,,,,,,,
CalCOFI,2007SR,003,4,2007_003d,13-Jul-2020 23:43:48,13-Jul-2020 15:43:48,32.95666,-117.30422,093.3 026.7,093.3,026.7,40.000,40.288,,11.1167,,11.1066,,11.1117,33.7085,,33.7087,33.7132,,33.7148,33.7118,3.0712,,3.1914,3.0336,4.1291,,5.9162,5.0117,4.0227,133.717,139.0991,96.3009,179.776,161.5078,175.2280,135.7645,0.0599,,0.2795,0.0000,0.6859,,9.0204,15.730,25.7498,,25.7553,,0.7128,83.6775,,7.814,,5.5573E+02,,1.0000E-12,,11.1119,11.1017,0.1282,,49.408,66.415,,,,,,,,,,,,
CalCOFI,2007SR,003,4,2007_003d,13-Jul-2020 23:43:50,13-Jul-2020 15:43:50,32.95666,-117.30422,093.3 026.7,093.3,026.7,41.000,41.295,,11.1097,,11.1048,,11.1073,33.7106,,33.7108,33.7152,,33.7168,33.7138,3.0670,,3.1870,3.0291,4.0821,,5.8040,5.0943,4.0617,133.534,138.9080,96.0500,177.728,161.0602,174.5950,135.3225,0.0589,,0.2678,0.0000,0.6950,,9.2760,15.953,25.7527,,25.7572,,0.7115,83.7035,,7.810,,5.3425E+02,,1.0000E-12,,11.1047,11.0997,0.1305,,49.334,65.656,,,,,,,,,,,,
CalCOFI,2007SR,003,4,2007_003d,13-Jul-2020 23:43:53,13-Jul-2020 15:43:53,32.95666,-117.30420,093.3 026.7,093.3,026.7,42.000,42.302,,11.1058,,11.1051,,11.1055,33.7123,,33.7125,33.7158,,33.7174,33.7150,3.0597,,3.1794,3.0211,4.0063,,5.6230,5.2275,4.1243,133.214,138.5740,95.6112,174.430,160.2776,173.5756,134.5934,0.0620,,0.3042,0.0000,0.7047,,9.5483,16.192,25.7547,,25.7576,,0.7112,83.7106,,7.807,,5.6125E+02,,1.0000E-12,,11.1007,11.1000,0.1328,,49.212,64.439,42,11.092,33.7048,3.122,136.24,-99.000,-99.000,15.5,0.00,0.22,1.35,15.35
CalCOFI,2007SR,003,4,2007_003d,13-Jul-2020 23:43:55,13-Jul-2020 15:43:55,32.95666,-117.30420,093.3 026.7,093.3,026.7,43.000,43.310,,11.1069,,11.0978,,11.1024,33.7122,,33.7124,33.7166,,33.7182,33.7153,3.0543,,3.1737,3.0153,3.9547,,5.4999,5.3181,4.1667,132.981,138.3308,95.2918,172.180,159.7077,172.8802,134.0860,0.0590,,0.2690,0.0000,0.7075,,9.6270,16.261,25.7545,,25.7595,,0.7139,83.6553,,7.804,,5.6338E+02,,1.0000E-12,,11.1016,11.0925,0.1350,,49.127,63.598,,,,,,,,,,,,
CalCOFI,2007SR,003,4,2007_003d,13-Jul-2020 23:43:56,13-Jul-2020 15:43:56,32.95666,-117.30421,093.3 026.7,093.3,026.7,44.000,44.317,,11.0945,,11.0889,,11.0917,33.7135,,33.7137,33.7174,,33.7190,33.7164,3.0560,,3.1755,3.0171,3.9217,,5.4211,5.3761,4.1966,133.055,138.4080,95.3932,170.744,159.8887,172.4364,133.9148,0.0561,,0.2349,0.0000,0.7084,,9.6522,16.283,25.7578,,25.7618,,0.7140,83.6525,,7.801,,6.7276E+02,,1.0000E-12,,11.0891,11.0835,0.1373,,49.142,63.056,,,,,,,,,,,,
CalCOFI,2007SR,003,4,2007_003d,13-Jul-2020 23:43:58,13-Jul-2020 15:43:58,32.95666,-117.30422,093.3 026.7,093.3,026.7,45.000,45.324,,11.0832,,11.0815,,11.0824,33.7147,,33.7149,33.7188,,33.7204,33.7177,3.0567,,3.1762,3.0179,3.8813,,5.3246,5.4471,4.2325,133.082,138.4362,95.4303,168.986,159.9547,171.8930,133.6617,0.0605,,0.2866,0.0000,0.7092,,9.6747,16.303,25.7607,,25.7642,,0.7170,83.5891,,7.798,,6.5536E+02,,1.0000E-12,,11.0777,11.0760,0.1395,,49.141,62.398,,,,,,,,,,,,
CalCOFI,2007SR,003,4,2007_003d,13-Jul-2020 23:44:01,13-Jul-2020 15:44:01,32.95666,-117.30420,093.3 026.7,093.3,026.7,46.000,46.332,,11.0775,,11.0769,,11.0772,33.7154,,33.7156,33.7186,,33.7202,33.7179,3.0603,,3.1800,3.0218,3.8229,,5.1852,5.5497,4.2858,133.241,138.6022,95.6483,166.442,160.3436,171.1067,133.3775,0.0596,,0.2760,0.0000,0.7121,,9.7561,16.374,25.7623,,25.7649,,0.7179,83.5703,,7.794,,7.8177E+02,,1.0000E-12,,11.0718,11.0713,0.1418,,49.194,61.453,,,,,,,,,,,,
CalCOFI,2007SR,003,4,2007_003d,13-Jul-2020 23:44:03,13-Jul-2020 15:44:03,32.95666,-117.30420,093.3 026.7,093.3,026.7,47.000,47.339,,11.0771,,11.0705,,11.0738,33.7147,,33.7149,33.7187,,33.7203,33.7176,3.0630,,3.1828,3.0247,3.7782,,5.0785,5.6283,4.3265,133.359,138.7254,95.8101,164.495,160.6322,170.5049,133.1575,0.0565,,0.2396,0.0000,0.7159,,9.8628,16.467,25.7619,,25.7662,,0.7205,83.5157,,7.794,,6.3577E+02,,1.0000E-12,,11.0713,11.0648,0.1440,,49.237,60.725,,,,,,,,,,,,
CalCOFI,2007SR,003,4,2007_003d,13-Jul-2020 23:44:05,13-Jul-2020 15:44:05,32.95666,-117.30420,093.3 026.7,093.3,026.7,48.000,48.346,,11.0700,,11.0632,,11.0666,33.7148,,33.7150,33.7186,,33.7202,33.7176,3.0712,,3.1914,3.0336,3.7435,,4.9957,5.6892,4.3614,133.717,139.0991,96.3009,162.983,161.5078,170.0376,133.1693,0.0576,,0.2525,0.0000,0.7188,,9.9443,16.538,25.7633,,25.7674,,0.7210,83.5057,,7.791,,8.3856E+02,,1.0000E-12,,11.0641,11.0574,0.1463,,49.361,60.158,,,,,,,,,,,,
CalCOFI,2007SR,003,4,2007_003d,13-Jul-2020 23:44:07,13-Jul-2020 15:44:07,32.95666,-117.30422,093.3 026.7,093.3,026.7,49.000,49.354,,11.0584,,11.0519,,11.0552,33.7146,,33.7148,33.7183,,33.7199,33.7174,3.0703,,3.1905,3.0327,3.7110,,4.9181,5.7463,4.3895,133.675,139.0552,96.2434,161.569,161.4051,169.6005,132.9220,0.0569,,0.2443,0.0000,0.7212,,10.0117,16.597,25.7652,,25.7693,,0.7232,83.4598,,7.790,,6.0809E+02,,1.0000E-12,,11.0525,11.0459,0.1485,,49.334,59.622,,,,,,,,,,,,